When you browse on this site, cookies collect data to enhance your experience and personalize the content and advertising you see.
Visit our Privacy Policy to learn more. By continuing to use the site, you agree to this use of cookies and data.
  • In Hungary
  • List of Countries
  • For 7 days
  • Water Temperature
  • Weather Map
  • News
  • Weather Widgets
  • user-avatar
    Login

    Hourly Weather Pernik

    Today, 17 February, Monday

    Time Temperature Precipitation Wind Pressure Humidity
    00:00 +1°C° 0 mm 0 mps 698 mmHg 79%
    01:00 +1°C° 0 mm 0 mps 698 mmHg 79%
    02:00 +2°C° 0 mm 1 mps 698 mmHg 78%
    03:00 +2°C° 0 mm 1 mps 698 mmHg 78%
    04:00 +2°C° 0 mm 1 mps 697 mmHg 78%
    05:00 +2°C° 0 mm 1 mps 697 mmHg 78%
    06:00 +2°C° 0 mm 1 mps 697 mmHg 77%
    07:00 +2°C° 0 mm 1 mps 697 mmHg 76%
    08:00 +2°C° 0 mm 1 mps 697 mmHg 75%
    09:00 +4°C° 0 mm 1 mps 697 mmHg 69%
    10:00 +6°C° 0 mm 1 mps 697 mmHg 63%
    11:00 +8°C° 0 mm 1 mps 697 mmHg 57%
    12:00 +9°C° 0 mm 1 mps 697 mmHg 54%
    13:00 +10°C° 0 mm 1 mps 696 mmHg 52%
    14:00 +11°C° 0 mm 1 mps 696 mmHg 49%
    15:00 +11°C° 0 mm 1 mps 696 mmHg 53%
    16:00 +10°C° 0 mm 1 mps 695 mmHg 57%
    17:00 +10°C° 0 mm 1 mps 695 mmHg 60%
    18:00 +9°C° 0 mm 1 mps 695 mmHg 62%
    19:00 +6°C° 0 mm 0 mps 695 mmHg 64%
    20:00 +5°C° 0 mm 0 mps 695 mmHg 66%
    21:00 +6°C° 0 mm 1 mps 694 mmHg 67%
    22:00 +5°C° 0 mm 1 mps 694 mmHg 67%
    23:00 +5°C° 0 mm 1 mps 694 mmHg 68%

    Tomorrow, 18 February, Tuesday

    Time Temperature Precipitation Wind Pressure Humidity
    00:00 +5°C° 0 mm 1 mps 693 mmHg 69%
    01:00 +5°C° 0 mm 1 mps 693 mmHg 69%
    02:00 +3°C° 0 mm 0 mps 693 mmHg 69%
    03:00 +3°C° 0 mm 0 mps 693 mmHg 69%
    04:00 +3°C° 0 mm 0 mps 692 mmHg 69%
    05:00 +3°C° 0 mm 0 mps 692 mmHg 69%
    06:00 +3°C° 0 mm 0 mps 692 mmHg 68%
    07:00 +3°C° 0 mm 0 mps 692 mmHg 67%
    08:00 +3°C° 0 mm 0 mps 693 mmHg 65%
    09:00 +6°C° 0 mm 1 mps 693 mmHg 61%
    10:00 +8°C° 0 mm 1 mps 693 mmHg 57%
    11:00 +10°C° 0 mm 1 mps 693 mmHg 52%
    12:00 +10°C° 0 mm 2 mps 693 mmHg 51%
    13:00 +12°C° 0 mm 2 mps 693 mmHg 50%
    14:00 +12°C° 0 mm 3 mps 693 mmHg 48%
    15:00 +11°C° 0 mm 3 mps 693 mmHg 54%
    16:00 +10°C° 0 mm 3 mps 693 mmHg 59%
    17:00 +9°C° 0 mm 3 mps 693 mmHg 64%
    18:00 +8°C° 0 mm 2 mps 693 mmHg 71%
    19:00 +6°C° 0 mm 2 mps 693 mmHg 78%
    20:00 +6°C° 0 mm 1 mps 693 mmHg 85%
    21:00 +6°C° 0 mm 1 mps 693 mmHg 87%
    22:00 +5°C° 0 mm 1 mps 693 mmHg 89%
    23:00 +5°C° 0 mm 1 mps 693 mmHg 91%

    Day after tomorrow, 19 February, Wednesday

    Time Temperature Precipitation Wind Pressure Humidity
    00:00 +4°C° 0 mm 1 mps 693 mmHg 91%
    01:00 +4°C° 0 mm 1 mps 693 mmHg 91%
    02:00 +3°C° 0 mm 1 mps 693 mmHg 92%
    03:00 +3°C° 0 mm 1 mps 693 mmHg 91%
    04:00 +3°C° 0 mm 1 mps 693 mmHg 91%
    05:00 +3°C° 0 mm 1 mps 692 mmHg 90%
    06:00 +3°C° 0 mm 1 mps 692 mmHg 89%
    07:00 +3°C° 0 mm 1 mps 692 mmHg 89%
    08:00 +3°C° 0 mm 1 mps 692 mmHg 88%
    09:00 +4°C° 0 mm 1 mps 692 mmHg 84%
    10:00 +5°C° 0 mm 1 mps 692 mmHg 79%
    11:00 +6°C° 0 mm 1 mps 692 mmHg 75%
    12:00 +6°C° 0 mm 0 mps 692 mmHg 72%
    13:00 +7°C° 0 mm 0 mps 692 mmHg 69%
    14:00 +8°C° 0 mm 0 mps 691 mmHg 66%
    15:00 +8°C° 0 mm 0 mps 691 mmHg 66%
    16:00 +7°C° 0 mm 0 mps 690 mmHg 67%
    17:00 +7°C° 0 mm 0 mps 690 mmHg 67%
    18:00 +7°C° 0 mm 0 mps 689 mmHg 71%
    19:00 +6°C° 0 mm 0 mps 689 mmHg 75%
    20:00 +5°C° 0 mm 0 mps 689 mmHg 79%
    21:00 +5°C° 0 mm 0 mps 689 mmHg 81%
    22:00 +5°C° 0 mm 0 mps 688 mmHg 82%
    23:00 +4°C° 0 mm 0 mps 688 mmHg 83%

    20 February, Thursday

    Time Temperature Precipitation Wind Pressure Humidity
    00:00 +5°C° 0.2 mm 1 mps 688 mmHg 85%
    01:00 +5°C° 0.2 mm 1 mps 688 mmHg 87%
    02:00 +5°C° 0.2 mm 1 mps 687 mmHg 89%
    03:00 +3°C° 1.1 mm 2 mps 687 mmHg 91%
    04:00 +3°C° 1.1 mm 2 mps 687 mmHg 93%
    05:00 +1°C° 1.1 mm 3 mps 687 mmHg 95%
    06:00 +1°C° 0.7 mm 3 mps 687 mmHg 92%
    07:00 -1°C° 0.7 mm 4 mps 688 mmHg 90%
    08:00 -1°C° 0.7 mm 4 mps 688 mmHg 87%
    09:00 -1°C° 0.2 mm 5 mps 688 mmHg 83%
    10:00 -1°C° 0.2 mm 5 mps 689 mmHg 79%
    11:00 -1°C° 0.2 mm 5 mps 689 mmHg 75%
    12:00 -1°C° 0.1 mm 6 mps 689 mmHg 73%
    13:00 -1°C° 0.1 mm 6 mps 689 mmHg 70%
    14:00 -1°C° 0.1 mm 6 mps 689 mmHg 68%
    15:00 -1°C° 0 mm 6 mps 689 mmHg 70%
    16:00 -1°C° 0 mm 5 mps 689 mmHg 71%
    17:00 -1°C° 0 mm 5 mps 689 mmHg 72%
    18:00 -1°C° 0.1 mm 5 mps 689 mmHg 77%
    19:00 -2°C° 0.1 mm 4 mps 690 mmHg 81%
    20:00 -2°C° 0.1 mm 3 mps 690 mmHg 85%
    21:00 -2°C° 0.2 mm 3 mps 690 mmHg 86%
    22:00 -2°C° 0.2 mm 3 mps 691 mmHg 86%
    23:00 -2°C° 0.2 mm 3 mps 691 mmHg 87%

    21 February, Friday

    Time Temperature Precipitation Wind Pressure Humidity
    00:00 -2°C° 0.1 mm 3 mps 691 mmHg 87%
    01:00 -2°C° 0.1 mm 3 mps 692 mmHg 87%
    02:00 -2°C° 0.1 mm 3 mps 692 mmHg 88%
    03:00 -2°C° 0.1 mm 3 mps 692 mmHg 88%
    04:00 -3°C° 0.1 mm 2 mps 693 mmHg 88%
    05:00 -3°C° 0.1 mm 2 mps 693 mmHg 88%
    06:00 -3°C° 0 mm 2 mps 693 mmHg 87%
    07:00 -2°C° 0 mm 2 mps 694 mmHg 86%
    08:00 -2°C° 0 mm 2 mps 694 mmHg 85%
    15:00 +4°C° 0 mm 2 mps 695 mmHg 64%
    16:00 +4°C° 0 mm 2 mps 695 mmHg 65%
    17:00 +4°C° 0 mm 2 mps 695 mmHg 67%
    18:00 +2°C° 0 mm 2 mps 695 mmHg 72%
    19:00 +2°C° 0 mm 1 mps 695 mmHg 76%
    20:00 +1°C° 0 mm 1 mps 695 mmHg 80%
    21:00 0°C° 0 mm 1 mps 696 mmHg 78%
    22:00 0°C° 0 mm 1 mps 696 mmHg 76%
    23:00 0°C° 0 mm 1 mps 697 mmHg 74%

    22 February, Saturday

    Time Temperature Precipitation Wind Pressure Humidity
    00:00 0°C° 0 mm 1 mps 697 mmHg 72%
    01:00 0°C° 0 mm 1 mps 697 mmHg 69%
    02:00 0°C° 0 mm 1 mps 697 mmHg 67%
    03:00 0°C° 0 mm 1 mps 697 mmHg 67%
    04:00 -2°C° 0 mm 2 mps 697 mmHg 68%
    05:00 -2°C° 0 mm 2 mps 697 mmHg 69%
    06:00 -2°C° 0 mm 2 mps 697 mmHg 70%
    07:00 -2°C° 0 mm 2 mps 697 mmHg 72%
    08:00 -2°C° 0 mm 2 mps 697 mmHg 74%
    09:00 -1°C° 0 mm 3 mps 698 mmHg 66%
    10:00 +1°C° 0 mm 3 mps 698 mmHg 59%
    11:00 +1°C° 0 mm 4 mps 699 mmHg 52%
    12:00 +3°C° 0 mm 4 mps 699 mmHg 51%
    13:00 +3°C° 0 mm 4 mps 699 mmHg 49%
    14:00 +4°C° 0 mm 3 mps 699 mmHg 48%
    15:00 +4°C° 0 mm 3 mps 698 mmHg 51%
    16:00 +3°C° 0 mm 3 mps 698 mmHg 54%
    17:00 +4°C° 0 mm 2 mps 698 mmHg 57%
    18:00 +3°C° 0 mm 2 mps 698 mmHg 61%
    19:00 +2°C° 0 mm 1 mps 698 mmHg 65%
    20:00 +1°C° 0 mm 1 mps 698 mmHg 68%
    21:00 +1°C° 0 mm 1 mps 698 mmHg 67%
    22:00 +1°C° 0 mm 1 mps 698 mmHg 66%
    23:00 +1°C° 0 mm 1 mps 698 mmHg 64%
    Show more